Location: *
(55.5817°S, 142.4781°W)
Time: 06:50:26
(UTC+00:00)

IRS-1C - Pass Details

Date: 29 April 2025
Orbit: 813 x 814 km, 99.0° (Epoch: 23 May)

Event Time Altitude Azimuth Distance (km) Brightness Sun altitude
Rises 14:43:08 0° 4° (N) 3,342 7.4 -18.3°
Reaches altitude 10° 14:45:31 10° 359° (N) 2,418 6.6 -17.9°
Maximum altitude 14:50:46 54° 281° (WNW) 1,001 4.2 -17.2°
Drops below altitude 10° 14:56:05 10° 204° (SSW) 2,447 6.4 -16.4°
Sets 14:58:31 0° 198° (SSW) 3,386 7.1 -16.1°
